map of BLE home
Great Circle Mapper logo
BLE - Airport
Location
City:  Borlänge, Dalarnas län, Sweden
Name:Borlänge AB
ICAO:ESSD
IATA:BLE

Details
Type:Airport (Aerodrome, Airfield)
Use:Public/Civil, Military
Latitude:60°25'19"N (60.422017)
Longitude:15°30'55"E (15.515211)
Datum:WGS 1984
Elevation:503 ft (153 m)
Variation:5.02°E (WMM2015 magnetic declination)
0.17° annual change
Runways:1
Longest:7579 × 148 ft (2310 × 45 m), paved

Time
Time Zone:UTC+1 (DST+2)
Local Time:

Weather
METAR:ESSD 281750Z AUTO 21006KT 9999 NCD 20/10 Q1009

Related Locations
Nearby:
Farthest:CHT: 11179 mi / 17991 km
Waitangi [Tuuta], Chatham Islands, NZ

Find:

   beyond  
but within

Other Information
Maps:
NOTAMs:
Links:
Sources:

  
flag of Sweden   

Sectional Chart

Flight Planning
at skyvector.com

Satellite Image

Google Maps Satellite view

 

Copyright © 2004-2016 Karl L. Swartz. All rights reserved.
The Great Circle Mapper name and logo are trademarks of the Great Circle Mapper.
All other trademarks mentioned herein belong to their respective owners.
Please see credits for attibutions and further copyright information.

  Follow gcmap on Facebook Follow gcmap on Twitter Follow gcmap on Google+ GCmap on LinkedIn

hCard Microformat

Geo Microformat